Angel Fire, NM

7:26 AM MST on February 24, 2017 (GMT -0700)
Angel Fire

Weather History for KAXX - January, 2013

Change the Weather History Date:

Thursday, January 24, 2013

  Actual Average (KSKX) Record (KSKX)
Temperature  
Mean Temperature 24 °F -  
Max Temperature 44 °F 40 °F 55 °F (2005)
Min Temperature 4 °F 12 °F 0 °F (2002)
Degree Days  
Heating Degree Days 41    
Moisture  
Dew Point 12 °F    
Average Humidity 49    
Maximum Humidity 78    
Minimum Humidity 25    
Precipitation  
Precipitation 0.00 in - - ()
Sea Level Pressure  
Sea Level Pressure 30.29 in    
Wind  
Wind Speed 6 mph (SW)    
Max Wind Speed 23 mph    
Max Gust Speed 36 mph    
Visibility 10 miles    
Events      
Averages and records for this station are not official NWS values.
T = Trace of Precipitation, MM = Missing Value Source: NWS Daily Summary

Daily Weather History Graph

Daily Weather History Graph

Search for Another Location

Airport or City:

Trip Planner

Search our weather history database for the weather conditions in past years. The results will help you decide how hot, cold, wet, or windy it might be!

Date:

Astronomy

Jan. 24, 2013 Rise Set
Actual Time 7:07 AM MST 5:19 PM MST
Civil Twilight 6:40 AM MST 5:46 PM MST
Nautical Twilight 6:09 AM MST 6:17 PM MST
Astronomical Twilight 5:38 AM MST 6:48 PM MST
Moon 3:24 PM MST 5:06 AM MST
Length of Visible Light 11h 06m
Length of Day
10h 11m
Waxing Gibbous, 95% of the Moon is Illuminated
Jan 24
Waxing Gibbous
Jan 26
Full
Feb 3
Last Quarter
Feb 10
New
Feb 17
First Quarter

Hourly Weather History & Observations

Time (MST) Temp. Windchill Dew Point Humidity Pressure Visibility Wind Dir Wind Speed Gust Speed Precip Events Conditions
12:15 AM 18.5 °F - 6.1 °F 58% 30.36 in 10.0 mi Calm Calm - N/A   Clear
12:35 AM 16.0 °F - 6.1 °F 65% 30.36 in 10.0 mi Calm Calm - N/A   Clear
12:55 AM 18.7 °F - 6.1 °F 58% 30.36 in 10.0 mi Calm Calm - N/A   Clear
1:15 AM 30.4 °F - 2.3 °F 30% 30.36 in 10.0 mi Calm Calm - N/A   Clear
1:35 AM 32.2 °F - 1.0 °F 27% 30.37 in 10.0 mi Calm Calm - N/A   Clear
1:55 AM 31.1 °F - 0.7 °F 27% 30.38 in 10.0 mi Calm Calm - N/A   Clear
2:15 AM 24.4 °F 20.1 °F 4.8 °F 43% 30.39 in 10.0 mi SSE 3.5 mph - N/A   Clear
2:35 AM 21.9 °F 14.5 °F 5.9 °F 50% 30.38 in 10.0 mi SSE 5.8 mph - N/A   Clear
2:55 AM 19.4 °F - 5.2 °F 54% 30.37 in 10.0 mi Calm Calm - N/A   Clear
3:15 AM 16.2 °F - 3.0 °F 56% 30.36 in 10.0 mi Calm Calm - N/A   Clear
3:35 AM 12.0 °F - 3.6 °F 69% 30.36 in 10.0 mi Calm Calm - N/A   Clear
3:55 AM 12.9 °F - 2.5 °F 63% 30.36 in 10.0 mi Calm Calm - N/A   Clear
4:15 AM 11.3 °F - 2.1 °F 67% 30.35 in 10.0 mi Calm Calm - N/A   Clear
4:35 AM 12.4 °F 3.1 °F 3.0 °F 66% 30.35 in 10.0 mi SSE 5.8 mph - N/A   Clear
4:55 AM 10.8 °F 1.2 °F 1.9 °F 68% 30.34 in 10.0 mi SSE 5.8 mph - N/A   Clear
5:15 AM 8.2 °F - 0.7 °F 71% 30.34 in 10.0 mi Calm Calm - N/A   Clear
5:35 AM 7.5 °F - 1.2 °F 75% 30.34 in 10.0 mi Calm Calm - N/A   Clear
5:55 AM 9.7 °F 1.4 °F 0.7 °F 67% 30.34 in 10.0 mi SSE 4.6 mph - N/A   Clear
6:15 AM 4.8 °F - -0.8 °F 78% 30.33 in 10.0 mi Calm Calm - N/A   Clear
6:35 AM 10.9 °F - 3.7 °F 73% 30.34 in 10.0 mi Calm Calm - N/A   Clear
6:55 AM 14.2 °F - 3.7 °F 63% 30.35 in 10.0 mi Calm Calm - N/A   Clear
7:15 AM 12.2 °F - 4.3 °F 71% 30.34 in 10.0 mi Calm Calm - N/A   Clear
7:35 AM 12.7 °F - 4.3 °F 69% 30.34 in 10.0 mi Calm Calm - N/A   Clear
7:55 AM 14.4 °F - 4.6 °F 65% 30.34 in 10.0 mi Calm Calm - N/A   Clear
8:15 AM 15.1 °F - 5.4 °F 65% 30.34 in 10.0 mi Calm Calm - N/A   Clear
8:35 AM 16.5 °F 9.4 °F 4.8 °F 60% 30.35 in 10.0 mi North 4.6 mph - N/A   Clear
8:55 AM 26.2 °F - 5.4 °F 41% 30.36 in 10.0 mi Calm Calm - N/A   Clear
9:15 AM 20.8 °F 16.0 °F 4.3 °F 49% 30.35 in 10.0 mi ENE 3.5 mph - N/A   Clear
9:35 AM 21.6 °F 14.0 °F 6.1 °F 51% 30.35 in 10.0 mi SSW 5.8 mph - N/A   Clear
9:55 AM 33.1 °F 24.4 °F 10.2 °F 39% 30.33 in 10.0 mi SE 11.5 mph - N/A   Clear
10:15 AM 33.3 °F 23.7 °F 10.0 °F 38% 30.33 in 10.0 mi SSE 13.8 mph - N/A   Clear
10:35 AM 37.2 °F 31.2 °F 10.2 °F 33% 30.31 in 10.0 mi SSW 8.1 mph - N/A   Clear
10:55 AM 41.4 °F 32.4 °F 8.1 °F 25% 30.30 in 10.0 mi WSW 19.6 mph 27.6 mph N/A   Clear
11:15 AM 41.0 °F 31.1 °F 9.9 °F 28% 30.29 in 10.0 mi WSW 23.0 mph 27.6 mph N/A   Clear
11:35 AM 42.1 °F 34.2 °F 8.6 °F 25% 30.28 in 10.0 mi West 16.1 mph 29.9 mph N/A   Clear
11:55 AM 41.9 °F 33.4 °F 10.2 °F 27% 30.27 in 10.0 mi WSW 18.4 mph 26.5 mph N/A   Clear
12:15 PM 41.0 °F 32.8 °F 10.0 °F 28% 30.27 in 10.0 mi WSW 16.1 mph 34.5 mph N/A   Clear
12:35 PM 43.0 °F 35.7 °F 9.7 °F 26% 30.25 in 10.0 mi West 15.0 mph 19.6 mph N/A   Clear
12:55 PM 43.3 °F 35.8 °F 10.8 °F 27% 30.24 in 10.0 mi West 16.1 mph 32.2 mph N/A   Clear
1:15 PM 44.6 °F 36.9 °F 11.7 °F 26% 30.24 in 10.0 mi WSW 18.4 mph 27.6 mph N/A   Clear
1:35 PM 43.9 °F 35.4 °F 11.7 °F 27% 30.24 in 10.0 mi West 20.7 mph 31.1 mph N/A   Clear
1:55 PM 43.7 °F 36.9 °F 13.6 °F 30% 30.24 in 10.0 mi WSW 13.8 mph 25.3 mph N/A   Clear
2:15 PM 43.7 °F 35.7 °F 15.3 °F 32% 30.23 in 10.0 mi WSW 18.4 mph 29.9 mph N/A   Clear
2:35 PM 43.7 °F 36.0 °F 15.8 °F 33% 30.22 in 10.0 mi WSW 17.3 mph 26.5 mph N/A   Clear
2:55 PM 43.9 °F 37.5 °F 16.5 °F 33% 30.23 in 10.0 mi WSW 12.7 mph 28.8 mph N/A   Clear
3:15 PM 44.1 °F 36.2 °F 17.2 °F 34% 30.22 in 10.0 mi WSW 18.4 mph 25.3 mph N/A   Clear
3:35 PM 44.2 °F 36.4 °F 18.3 °F 35% 30.22 in 10.0 mi SSW 18.4 mph 26.5 mph N/A   Clear
3:55 PM 44.4 °F 38.2 °F 17.4 °F 34% 30.23 in 10.0 mi SW 12.7 mph - N/A   Clear
4:15 PM 43.9 °F 37.5 °F 18.9 °F 37% 30.23 in 10.0 mi SW 12.7 mph 27.6 mph N/A   Clear
4:35 PM 43.3 °F 36.1 °F 18.9 °F 38% 30.22 in 10.0 mi SW 15.0 mph 20.7 mph N/A   Clear
4:55 PM 42.8 °F 37.5 °F 19.6 °F 40% 30.22 in 10.0 mi West 9.2 mph 24.2 mph N/A   Clear
5:15 PM 42.8 °F 38.0 °F 19.2 °F 39% 30.22 in 10.0 mi WSW 8.1 mph 23.0 mph N/A   Clear
5:35 PM 42.3 °F 36.8 °F 19.8 °F 41% 30.21 in 10.0 mi West 9.2 mph 24.2 mph N/A   Clear
5:55 PM 41.2 °F 31.6 °F 21.2 °F 45% 30.22 in 10.0 mi West 21.9 mph 33.4 mph N/A   Clear
6:15 PM 40.3 °F 31.6 °F 21.4 °F 47% 30.21 in 10.0 mi West 17.3 mph 35.7 mph N/A   Clear
6:35 PM 39.6 °F 29.7 °F 21.2 °F 48% 30.22 in 10.0 mi West 20.7 mph 32.2 mph N/A   Clear
6:55 PM 40.3 °F 32.2 °F 21.6 °F 47% 30.22 in 10.0 mi West 15.0 mph 33.4 mph N/A   Clear
7:15 PM 40.1 °F 31.0 °F 21.9 °F 48% 30.23 in 10.0 mi West 18.4 mph 24.2 mph N/A   Clear
7:35 PM 39.4 °F 30.7 °F 22.3 °F 50% 30.22 in 10.0 mi WSW 16.1 mph 32.2 mph N/A   Clear
7:55 PM 38.7 °F 29.5 °F 22.1 °F 51% 30.22 in 10.0 mi West 17.3 mph 32.2 mph N/A   Clear
8:15 PM 38.3 °F 33.9 °F 21.9 °F 52% 30.23 in 10.0 mi SSW 5.8 mph - N/A   Clear
8:35 PM 38.7 °F 34.3 °F 21.7 °F 51% 30.24 in 10.0 mi SW 5.8 mph - N/A   Clear
8:55 PM 39.2 °F 35.0 °F 21.6 °F 49% 30.24 in 10.0 mi ENE 5.8 mph - N/A   Clear
9:15 PM 39.2 °F 37.0 °F 22.1 °F 50% 30.26 in 10.0 mi SSE 3.5 mph 20.7 mph N/A   Clear
9:35 PM 38.8 °F 33.2 °F 22.8 °F 53% 30.26 in 10.0 mi South 8.1 mph 17.3 mph N/A   Clear
9:55 PM 38.1 °F 31.2 °F 23.2 °F 55% 30.28 in 10.0 mi SSE 10.4 mph 24.2 mph N/A   Clear
10:15 PM 37.6 °F 29.6 °F 24.1 °F 58% 30.28 in 10.0 mi SW 12.7 mph 19.6 mph N/A   Clear
10:35 PM 36.7 °F 28.4 °F 24.1 °F 60% 30.28 in 10.0 mi SW 12.7 mph 23.0 mph N/A   Clear
10:55 PM 36.5 °F 28.2 °F 24.1 °F 61% 30.27 in 10.0 mi SW 12.7 mph - N/A   Clear
11:15 PM 35.8 °F 26.5 °F 24.4 °F 63% 30.27 in 10.0 mi SSW 15.0 mph 21.9 mph N/A   Clear
11:35 PM 34.5 °F 28.6 °F 24.3 °F 66% 30.28 in 10.0 mi SW 6.9 mph 11.5 mph N/A   Clear
11:55 PM 34.0 °F 28.0 °F 23.7 °F 66% 30.29 in 10.0 mi SW 6.9 mph - N/A   Clear